THORAD AGENA D DEB, 18418

Orbit data source: Space-Track

THORAD AGENA D DEB, 18418 is space debris in SSO originally from a launch on Wed, 08 Apr 1970 UTC launched from the Air Force Western Test Range (AFWTR). Debris objects in space refer to the collection of defunct objects orbiting the Earth. Examples of debris include non-operational satellites, rocket bodies, and fragments generated from explosions, collisions, or faulty payload assembly.

Loading next visibility...
Identifier
18418, 1970-025PL
Orbit
SSO
Country
Flag of USUS
Related business
Manufacturer
Unknown
Mission
Spacecraft
Bus & Motor
Unknown
Mass
Unknown
Launch date (UTC)
1970-04-08 (56 years ago)
Launch vehicle
Unknown
Launch site
Air Force Western Test Range (AFWTR)
Object type
Payload
Rocket body
Debris
Shape & HBR
Unknown shape, 0.1 m
Radar Cross Section
Medium (>0.1 m² and <1 m²)

Expand to show TLE details & history
Last TLE update: 2 days ago

TLE from 2 days ago
0 THORAD AGENA D DEB
1 18418U 70025PL  26168.03068744  .00000979  00000-0  98431-3 0  9994
2 18418 100.1949 340.9406 0000626  47.0979  77.7540 13.80433491790624
Epoch: 2026-06-17T00:44Z
TLE epoch observation values (Epoch: 2026-06-17T00:44:11.394Z)
Latitude
53.96262°
Longitude
-101.16614°
Altitude
971.021 km
Speed
7.371 km/s
True Right ascension
11h 40m 42s
True Declination
53° 48' 13"
Sunlit
Object was in daylight at epoch
Visualization orbit readout
Latitude
Unknown
Longitude
Unknown
Altitude
Unknown
Speed
Unknown
Apparent Right ascension
Unknown
Apparent Declination
Unknown
Sunlit
N/A
Visualization observer readout
Local Sidereal Time
07:32:09
Azimuth
Unknown
Elevation
Unknown
Doppler factor
Unknown
Orbital elements
Apogee altitude
960.096 km
Perigee altitude
959.178 km
Semi-major axis
7,337.774 km
Eccentricity
0.00006
Inclination
100.1949°
RAAN
340.9406°
Arg. of periapsis
47.0979°
True anomaly
77.76101°
Mean anomaly
77.754°
Eccentric anomaly
77.75751°
Mean motion
3.453 °/min
Orbital period
104.26 mins
BSTAR
0.00098431

Documentation

Showing up to 5 results
|